GFSWCAN_sfc_rhum_231.txt.gz
RH
85 85 85 85 84 84 85 86 86 87 84 86 86 86 85 83 82 85 68 58 63 62 48 36 32 38 41 53 72 77 66 49 77 84 88 88 90 90 84 88 88 88 79 61 68 70 69 72 64 61 79 66 59 58
85 85 85 84 84 84 85 86 85 84 86 86 87 87 87 85 83 82 74 46 44 62 50 38 35 30 27 30 40 64 51 52 54 97 98 96 93 92 85 84 84 92 81 94 76 73 69 77 80 82 80 66 69 64
84 85 83 82 84 85 85 85 85 85 85 86 86 87 86 85 83 82 78 65 63 57 45 43 37 25 21 20 20 49 47 47 46 46 72 92 88 94 95 83 84 82 85 90 69 71 70 63 67 64 60 48 53 51
85 83 82 83 83 83 83 83 84 86 86 87 88 87 87 86 85 83 76 61 60 56 59 39 21 30 24 22 25 25 29 30 27 45 52 66 74 88 84 92 94 86 80 66 74 84 78 62 53 50 52 47 44 40
82 82 81 91 92 88 86 83 84 85 87 89 91 88 88 87 87 85 74 60 53 61 57 49 34 24 20 26 28 30 28 32 47 52 54 53 64 75 80 95 94 83 77 81 90 72 70 62 53 48 40 41 44 46
82 89 90 90 90 90 89 90 85 86 88 90 90 89 89 90 93 71 66 55 47 54 61 56 34 36 30 31 32 42 39 42 46 49 47 44 37 48 52 76 78 75 63 67 74 61 56 50 45 39 42 37 36 38
92 91 90 89 88 88 88 89 90 93 93 90 90 90 92 94 84 64 64 66 80 68 63 56 52 34 33 34 34 37 33 43 46 47 50 47 49 52 52 80 73 66 60 58 54 54 57 47 49 40 39 49 50 42
90 90 89 88 87 87 88 89 91 93 91 90 90 91 92 92 88 63 59 82 83 64 56 61 51 48 33 41 48 43 47 46 52 47 47 52 56 54 87 76 67 62 59 57 56 50 50 46 56 56 59 63 66 59
88 89 87 87 87 87 88 90 91 93 90 88 88 90 75 68 59 64 75 77 68 69 70 54 51 57 39 43 46 46 46 52 47 51 49 50 58 91 81 76 72 68 67 63 55 61 61 63 66 65 67 72 73 78
88 88 87 87 87 87 90 90 91 90 88 87 75 57 60 59 74 75 67 65 66 60 62 58 43 55 40 46 54 54 53 52 58 53 51 56 85 80 75 73 73 69 64 62 70 77 70 73 73 72 74 77 80 80
87 87 87 87 87 88 90 88 93 90 72 54 57 59 58 59 54 56 64 66 63 62 52 44 48 54 49 60 63 61 63 60 61 59 54 60 91 75 71 74 74 72 67 66 67 66 62 66 75 72 79 83 88 91
89 89 90 89 88 89 90 90 94 73 65 81 93 83 66 56 56 60 63 59 58 58 51 52 52 48 58 56 59 63 59 58 58 52 56 67 86 78 72 71 75 74 66 66 64 68 67 67 72 78 84 86 91 94
90 90 90 90 90 91 92 91 92 93 89 70 90 77 62 66 86 60 58 60 64 54 52 54 54 56 58 51 56 63 57 56 50 58 57 89 83 78 76 73 74 68 61 61 63 64 70 72 72 75 85 89 86 93
88 89 89 90 90 91 89 90 91 87 80 68 61 98 65 56 48 49 48 54 53 49 48 50 56 57 52 60 56 59 54 50 51 50 84 93 84 78 72 69 66 61 56 56 61 62 68 71 77 88 90 93 90 95
86 86 86 89 87 87 89 90 89 77 68 61 47 78 46 37 36 39 44 49 50 47 54 54 53 53 57 59 56 53 57 54 70 90 91 89 80 75 74 65 64 68 71 67 66 67 68 66 74 83 86 89 95 96
85 86 71 78 86 88 90 84 70 65 61 53 49 48 40 40 65 54 56 52 46 52 52 54 56 60 58 56 56 53 52 67 86 85 97 94 83 81 83 79 75 74 75 78 74 73 72 66 71 79 85 90 93 94
88 75 78 82 85 91 84 73 61 68 51 46 42 40 37 41 72 91 93 80 83 51 69 62 60 54 53 58 52 60 82 76 76 73 83 89 84 82 75 75 72 70 71 76 77 73 74 74 71 74 80 82 87 92
67 63 75 83 90 80 61 70 56 58 54 46 50 48 52 64 83 90 93 94 89 87 86 88 64 57 58 54 78 88 86 95 96 89 91 86 81 79 74 76 72 68 70 69 67 70 72 76 83 88 84 85 81 87
79 80 87 92 94 90 70 61 68 59 47 51 60 87 80 86 88 94 97 96 96 97 96 96 67 70 82 82 85 90 93 96 98 89 87 79 78 78 75 74 69 64 67 73 74 72 74 70 83 84 81 91 93 94
88 90 91 89 87 77 74 67 67 76 65 65 50 63 90 89 82 89 97 97 96 98 90 65 78 78 66 90 91 88 94 91 70 72 81 77 77 74 76 76 76 74 69 70 70 76 78 76 93 79 67 77 81 79
80 70 68 77 75 74 67 59 60 73 57 60 57 57 67 75 88 87 90 92 88 91 92 67 80 86 91 92 92 92 87 87 86 86 85 70 68 69 72 71 68 63 67 84 78 81 84 72 83 75 60 59 62 58
70 77 64 60 64 66 77 64 66 59 54 49 51 63 82 80 87 87 74 89 87 90 96 84 80 85 84 83 83 72 74 74 78 73 80 70 74 80 74 68 71 73 73 81 80 85 90 62 69 66 59 54 51 50
78 72 66 64 66 71 75 50 62 63 72 79 62 64 74 79 82 76 95 92 84 81 80 85 78 72 78 72 71 71 69 71 78 85 78 61 66 69 64 67 82 86 88 89 87 85 88 71 68 67 55 57 54 52
85 72 73 63 57 74 49 65 70 68 70 71 76 77 69 69 59 78 78 88 94 92 96 89 84 72 68 71 79 74 76 67 75 82 73 66 58 64 64 68 67 72 84 92 94 78 66 63 68 62 61 55 50 57
89 82 78 100 56 57 60 57 54 56 50 40 48 73 81 64 66 67 82 89 96 93 91 91 76 66 83 85 88 81 76 72 86 69 68 69 62 60 55 56 63 65 71 93 94 93 63 66 61 61 60 57 55 45
94 63 83 58 57 56 54 54 48 48 46 45 42 43 45 48 52 72 84 84 86 86 86 77 68 88 87 86 88 90 92 92 81 70 62 62 50 47 55 59 55 58 50 54 54 52 53 50 48 50 53 50 60 55
86 69 64 56 49 47 51 46 48 43 48 48 48 53 45 55 63 81 81 71 72 66 65 66 63 61 79 77 67 65 57 64 67 64 53 54 39 35 36 37 40 42 40 42 45 46 46 46 46 45 45 46 49 46
57 60 60 53 54 47 52 55 57 55 53 52 55 60 59 54 68 78 60 58 58 57 58 60 58 49 66 88 61 64 54 47 43 44 41 36 32 28 35 32 37 45 40 31 31 32 29 29 28 27 27 30 32 31
54 44 43 52 49 53 54 58 56 55 46 46 60 60 60 56 54 68 72 71 54 45 63 75 63 45 70 80 69 85 54 48 49 52 50 49 44 40 34 34 31 32 33 32 47 42 33 30 31 30 32 34 31 31
47 45 48 48 50 55 56 58 61 72 79 69 53 54 49 79 68 67 70 80 57 67 66 52 47 52 48 64 68 77 72 50 52 43 55 51 45 41 41 36 33 31 35 33 31 29 47 39 37 37 33 34 37 44
44 42 43 48 53 58 44 59 68 84 96 96 75 82 85 81 63 66 85 74 56 49 47 47 56 46 44 46 58 64 62 62 64 57 52 48 42 47 47 45 35 36 35 30 30 28 26 31 32 35 37 40 41 39
45 40 43 46 42 36 45 64 92 91 85 88 88 87 83 82 85 87 73 66 50 60 60 54 58 61 51 45 39 45 64 42 33 35 41 43 44 45 42 32 24 25 27 26 27 25 29 32 35 36 36 42 44 42
40 42 39 40 42 48 65 64 78 83 86 82 80 79 71 69 70 64 52 56 59 68 56 53 47 46 49 49 46 32 34 32 46 58 56 55 56 47 34 28 28 29 29 30 31 29 30 34 34 38 39 43 43 44

GFSWCAN_sfc_rhum_234.txt.gz
RH
81 81 83 82 81 82 84 83 83 82 85 83 84 84 84 84 81 82 93 82 85 94 76 54 43 58 54 70 76 74 78 84 94 96 97 97 95 92 89 90 87 89 95 96 87 80 77 74 70 56 70 78 63 63
82 82 83 82 84 82 82 82 84 86 83 84 84 85 84 84 84 82 99 75 66 93 67 57 42 41 43 43 51 66 80 70 83 97 96 98 93 95 86 96 89 91 90 97 95 75 70 78 83 84 77 69 65 68
81 83 81 81 80 84 86 85 85 82 85 85 86 87 85 85 87 85 97 98 94 95 76 73 59 41 44 40 37 48 67 65 67 77 95 96 84 93 89 83 90 85 91 96 97 73 70 68 72 68 70 67 56 57
81 81 79 88 90 89 89 89 89 86 86 85 86 87 85 85 85 83 96 97 95 91 93 67 39 42 33 31 27 34 37 57 52 66 76 84 84 89 90 88 87 83 89 84 82 74 70 65 60 56 57 58 55 50
79 79 89 90 89 88 86 88 89 89 89 90 88 86 86 86 87 85 85 98 85 87 87 70 48 43 39 30 35 37 40 46 55 55 67 73 91 91 95 94 90 89 83 89 91 78 78 70 63 53 45 48 51 51
86 87 90 88 88 87 87 88 89 89 90 91 92 90 88 88 93 99 92 87 80 77 85 82 57 43 38 34 38 45 40 46 53 53 55 56 73 72 88 94 88 81 76 86 86 79 75 61 48 58 53 64 62 56
86 78 86 87 87 86 86 87 88 90 90 91 90 90 91 93 95 93 82 76 89 90 79 82 75 49 34 50 43 44 47 48 52 56 55 58 51 60 85 95 87 78 67 70 63 64 63 63 68 71 71 68 67 71
85 87 87 87 87 87 87 87 90 91 91 89 90 90 91 93 96 83 78 83 89 83 83 85 71 48 41 52 50 58 53 52 49 51 57 58 64 86 94 87 85 71 65 60 69 69 76 80 72 74 74 76 80 83
87 87 88 88 88 88 88 89 90 91 90 90 89 92 94 89 85 80 75 85 84 80 92 89 77 69 47 55 53 52 54 52 59 58 56 56 94 97 88 88 79 75 73 74 70 71 72 77 80 78 83 86 94 93
89 89 89 90 90 89 89 90 91 92 90 88 86 78 82 82 74 76 81 85 93 95 94 89 71 64 57 69 64 57 72 64 61 58 61 93 96 88 86 84 79 76 75 72 79 83 81 87 85 86 91 94 97 98
89 89 90 90 90 90 88 92 93 92 79 91 96 88 92 80 75 83 78 89 87 88 88 76 64 65 63 62 70 71 68 74 70 61 56 78 97 90 80 83 80 79 75 77 77 79 83 86 85 90 92 95 96 98
87 87 88 89 90 90 92 94 93 96 94 94 97 91 100 91 83 83 82 77 80 75 69 63 60 66 66 66 64 68 64 68 61 65 64 85 92 90 87 85 80 78 73 73 72 77 78 74 80 85 92 96 98 98
85 85 86 87 88 90 92 93 90 92 93 97 97 99 96 87 82 78 76 80 82 70 66 63 62 65 62 64 70 71 63 65 64 64 73 95 95 90 92 85 81 76 72 70 73 76 76 81 83 87 93 95 95 97
86 86 86 87 88 92 91 91 90 95 99 97 91 98 94 85 72 73 72 66 68 66 66 70 70 67 74 66 73 66 61 63 59 66 90 97 93 94 90 82 78 75 70 66 70 74 76 86 92 93 94 97 96 98
87 87 88 90 85 86 88 89 92 99 98 93 79 81 68 58 56 60 64 76 90 65 57 60 66 68 69 65 71 63 67 67 82 94 97 98 93 94 89 72 69 78 76 79 76 76 73 82 90 92 92 95 96 96
88 89 86 80 83 86 91 94 96 98 94 91 81 73 62 60 71 87 95 97 96 98 89 72 70 68 71 67 66 64 66 81 93 95 98 95 89 87 87 89 85 84 81 84 85 82 82 78 88 89 91 94 95 95
90 96 82 80 85 92 88 94 92 88 80 55 74 68 84 91 96 96 97 98 99 99 98 86 78 64 67 68 72 85 94 96 98 96 96 92 85 86 88 88 83 78 78 82 87 84 83 82 85 91 92 93 96 96
94 78 80 86 91 95 94 95 86 75 76 71 85 98 90 93 96 95 96 98 98 99 98 97 98 80 71 73 89 96 97 97 98 97 96 93 90 88 87 83 75 78 77 79 66 80 86 88 91 94 92 91 94 94
90 91 90 92 93 96 97 80 80 79 72 73 97 97 96 96 96 96 98 98 99 99 99 98 94 84 89 94 94 95 96 95 93 92 94 91 88 88 82 82 82 73 72 78 79 83 73 71 89 93 88 94 96 96
92 88 90 90 92 96 92 90 79 84 86 87 80 81 97 92 93 97 97 97 99 99 98 90 88 91 93 96 95 94 93 95 96 95 90 87 91 84 85 87 92 80 69 68 74 78 82 81 94 78 86 92 92 89
91 87 85 94 98 97 96 93 85 87 84 87 68 89 92 96 92 92 93 97 98 98 95 96 96 94 92 93 93 95 93 90 91 93 90 84 82 86 80 80 81 82 75 92 85 86 92 90 91 88 75 73 81 82
97 84 90 84 90 86 94 89 86 77 78 79 81 83 89 87 91 93 94 93 93 93 96 94 92 92 93 90 91 87 84 84 82 86 86 80 80 84 85 85 88 91 93 91 93 92 95 92 82 73 72 60 66 56
88 89 92 84 87 91 77 76 80 81 85 85 88 83 87 90 90 88 92 96 97 98 99 96 87 82 84 87 83 80 78 80 88 90 80 80 78 82 85 88 94 94 96 96 95 92 90 78 79 70 65 62 60 60
86 92 92 89 81 87 75 80 84 86 84 85 85 84 84 86 96 91 89 93 95 97 96 90 94 86 88 84 88 89 85 85 92 93 85 75 71 68 70 90 94 95 95 96 96 90 90 77 78 75 66 66 65 66
95 82 98 98 84 76 74 72 66 71 66 60 77 81 82 87 80 83 91 93 95 93 92 95 92 91 93 93 94 92 87 86 92 92 84 81 75 75 61 80 91 92 92 89 89 80 75 81 72 66 64 62 63 64
95 79 75 70 74 76 74 74 70 65 65 62 63 69 71 72 73 87 92 93 91 90 91 92 91 95 95 93 94 94 92 93 85 88 78 80 81 79 76 70 72 72 82 84 84 77 67 67 53 52 52 54 70 61
90 80 70 67 72 70 70 68 71 69 61 70 71 66 66 72 81 86 94 92 85 76 79 81 81 94 97 97 92 83 83 86 82 73 73 69 42 53 57 52 49 48 66 67 66 60 56 54 51 52 56 60 61 57
80 66 70 65 67 72 63 68 69 68 67 72 74 72 71 70 82 87 82 82 69 73 72 72 72 91 94 94 96 92 69 68 56 48 52 53 48 45 39 38 40 48 41 40 46 56 37 37 38 37 37 36 37 37
80 71 63 62 60 77 79 75 74 78 79 79 82 74 71 66 73 83 85 86 77 67 69 88 85 82 90 92 94 94 78 65 54 54 61 64 64 58 59 54 43 38 37 36 47 41 36 35 32 34 34 38 41 49
60 61 58 58 71 77 70 73 74 78 91 90 89 77 78 85 91 86 80 80 87 74 80 79 91 84 89 80 71 73 84 75 72 70 73 74 69 64 62 58 55 54 49 42 40 38 49 47 43 41 40 37 48 53
58 62 58 61 65 70 76 84 84 92 94 96 92 90 95 97 94 86 87 81 84 74 63 61 59 59 62 68 77 76 80 67 68 61 55 77 71 65 56 51 47 48 45 44 40 39 46 47 53 54 48 46 46 50
61 60 61 63 64 75 72 83 94 94 94 95 92 93 92 93 88 91 92 91 80 67 72 71 81 66 57 74 68 67 72 66 41 38 45 52 59 54 48 45 44 42 43 44 46 44 43 47 50 50 54 53 53 54
58 59 60 61 60 63 86 90 89 91 92 92 87 87 85 86 81 91 68 72 67 82 72 74 74 62 54 56 59 60 48 34 44 59 57 55 55 49 44 45 41 38 38 41 46 44 45 44 50 50 48 46 52 47

GFSWCAN_sfc_rhum_237.txt.gz
RH
79 79 80 83 82 80 82 82 85 84 80 83 82 83 82 82 82 84 97 96 94 96 91 66 53 62 59 77 77 74 86 85 92 94 93 96 95 93 92 89 87 78 87 93 92 83 82 77 65 61 65 69 67 65
79 80 82 80 79 85 85 86 87 87 81 82 83 84 84 83 82 81 97 86 84 95 76 66 51 44 45 46 57 68 78 79 72 96 97 97 95 98 90 93 92 88 88 95 88 72 72 77 78 78 77 68 63 69
80 81 81 81 86 86 85 84 85 84 84 85 84 85 84 84 84 83 89 99 98 97 90 87 64 49 56 44 43 55 77 76 82 83 96 95 82 92 93 87 91 86 91 90 86 71 74 77 67 71 66 65 58 56
80 79 78 86 86 85 84 84 84 84 85 85 86 86 83 83 85 84 92 98 97 95 98 77 49 47 46 51 45 42 43 67 66 84 82 89 84 86 86 88 85 85 89 90 86 76 75 67 60 62 57 62 63 59
84 82 78 76 85 83 82 84 84 84 84 85 86 87 85 84 85 86 86 91 96 92 95 88 62 50 47 40 35 37 41 51 64 66 76 83 91 91 96 91 87 90 84 92 90 78 78 76 69 66 70 75 72 68
82 84 83 85 86 84 83 84 84 84 87 87 89 89 88 87 88 97 96 97 96 96 96 75 63 56 44 38 37 47 46 55 57 56 63 85 81 85 92 93 87 87 85 85 83 81 74 70 76 77 78 77 75 80
85 87 86 85 84 86 86 87 87 89 90 91 90 90 92 93 92 94 88 90 90 95 86 74 78 59 46 48 49 48 55 55 55 59 59 64 64 81 94 94 86 85 79 73 70 70 73 83 85 78 76 74 76 78
88 89 88 87 85 85 88 89 90 91 92 91 90 91 92 94 93 86 81 89 89 85 91 85 79 60 53 53 51 66 57 56 56 60 63 60 80 91 91 90 88 80 76 76 78 76 80 80 77 82 84 83 84 90
89 88 88 89 89 89 89 86 87 92 92 90 90 91 98 94 88 88 80 83 91 78 94 95 89 73 50 56 68 51 56 51 63 65 63 69 96 89 89 90 82 76 75 82 76 75 75 79 81 83 93 95 95 96
88 87 87 87 88 88 85 89 94 93 90 88 81 80 86 92 81 80 87 91 93 95 96 93 88 71 60 75 66 57 74 72 62 62 79 96 96 91 90 90 90 82 79 76 81 84 84 85 86 88 94 97 98 98
87 87 86 87 87 88 90 92 93 93 82 93 99 93 91 87 80 86 81 92 95 95 98 94 82 66 66 59 70 74 71 80 70 64 66 95 96 91 86 85 88 85 81 82 82 85 86 88 88 91 93 96 98 98
88 88 88 88 88 89 90 92 93 96 96 94 97 94 94 94 86 84 87 85 90 81 81 77 70 70 71 72 64 70 60 72 65 68 71 90 95 90 90 86 85 83 78 78 78 81 83 82 86 88 94 97 98 98
88 88 88 89 89 90 92 91 90 91 88 94 98 94 98 84 84 81 80 82 88 77 73 68 66 68 64 69 78 72 66 69 70 69 74 92 95 93 93 86 85 81 75 76 76 78 80 86 90 93 94 96 96 98
88 88 89 89 91 91 87 89 90 87 89 98 96 100 96 92 84 76 78 72 81 88 85 67 73 61 69 67 78 66 62 68 67 72 83 96 94 94 93 87 83 80 77 73 75 79 81 86 90 93 94 96 97 98
88 89 89 91 84 83 88 92 91 92 98 98 93 89 78 59 68 73 81 96 95 97 94 84 72 66 67 64 77 67 69 70 84 86 95 97 95 96 92 88 84 82 81 77 77 80 78 86 90 90 92 95 94 95
89 90 90 87 82 88 92 95 96 98 98 97 92 79 71 76 83 91 95 96 98 98 98 96 83 65 64 64 68 66 68 83 88 95 98 98 98 96 93 91 87 83 82 86 88 87 81 84 89 89 89 94 94 94
89 96 85 83 90 91 93 98 97 95 96 72 81 83 90 95 95 96 98 97 98 96 97 98 94 74 69 72 79 90 87 91 96 97 97 91 90 92 94 94 93 91 87 89 89 90 90 89 88 90 92 90 94 95
95 90 86 91 93 91 98 96 94 88 84 79 89 92 96 96 97 97 98 99 99 98 98 93 99 95 81 78 93 96 97 97 98 96 95 93 91 92 93 86 86 85 86 86 84 78 91 92 92 95 93 92 93 96
89 91 91 94 95 95 98 88 94 88 79 81 92 97 97 96 96 97 98 98 98 98 98 98 94 94 89 94 95 96 96 95 92 93 95 89 90 90 88 86 86 84 83 84 84 83 77 78 90 94 88 97 96 96
92 91 90 92 92 98 95 94 90 88 87 89 94 92 96 96 98 97 96 98 99 99 97 95 96 96 94 94 95 94 96 96 96 94 92 95 93 86 86 86 91 90 86 71 75 81 83 81 94 96 94 96 94 90
92 92 91 95 98 98 98 97 89 92 91 90 87 91 86 96 95 96 97 98 98 99 97 97 97 97 95 96 96 96 95 94 94 93 90 84 87 91 89 88 89 92 93 94 90 88 94 91 92 96 91 89 88 82
98 89 96 92 94 92 98 95 93 89 87 85 86 92 92 91 91 88 96 95 96 98 98 98 96 96 92 89 93 89 89 88 89 94 91 87 82 85 86 92 93 94 95 94 94 93 94 95 95 86 84 71 71 62
92 93 95 91 91 86 75 86 83 85 85 80 84 77 87 93 93 91 93 96 96 97 98 98 95 89 90 91 86 85 87 85 92 94 86 80 86 92 94 95 96 94 95 95 96 94 93 89 82 80 83 68 56 65
88 94 96 94 91 86 80 84 89 91 88 86 87 78 76 86 96 92 90 95 96 94 96 92 97 93 92 87 92 92 91 94 95 94 89 73 62 84 92 93 95 93 96 98 96 93 93 89 86 79 74 64 65 68
90 79 97 96 89 83 81 78 69 68 70 68 72 72 85 92 86 87 94 94 96 94 95 97 96 95 94 94 95 94 95 94 92 86 86 84 82 70 78 90 92 94 94 91 88 77 72 84 79 71 68 70 68 69
90 78 76 80 80 81 78 79 76 73 76 69 68 76 86 80 82 86 91 94 94 93 94 94 95 96 97 97 95 96 94 95 92 81 79 89 88 76 75 75 74 68 90 87 80 70 66 69 61 55 57 55 69 66
95 81 83 85 79 80 78 78 80 81 74 75 78 78 77 79 83 84 94 95 91 87 96 95 92 94 94 95 95 86 83 84 84 76 80 84 55 78 74 70 64 54 65 78 79 69 61 59 59 58 60 60 53 52
91 82 79 74 75 74 71 71 74 75 74 81 80 78 78 74 81 87 94 90 86 88 92 88 95 94 93 94 96 92 76 82 64 64 63 63 66 67 64 54 44 54 49 54 61 66 70 65 49 44 41 40 40 42
81 72 69 68 63 78 80 76 75 74 83 78 82 81 76 78 81 81 81 93 87 75 82 89 90 90 93 90 89 94 91 66 56 63 67 67 70 63 70 62 58 59 57 53 62 57 46 43 40 37 38 40 43 55
65 68 63 59 67 79 68 74 71 78 89 92 91 80 86 95 97 97 95 95 93 88 83 88 92 91 88 91 81 77 84 84 74 62 72 65 61 64 70 61 55 54 50 50 52 53 62 57 59 56 46 54 60 61
62 61 61 61 63 68 84 86 90 94 95 95 94 94 96 97 97 97 90 79 88 87 70 67 75 75 88 87 83 76 68 71 79 71 61 79 81 72 56 52 53 54 53 49 50 51 51 55 57 60 58 57 56 59
65 65 64 62 68 86 85 87 94 91 92 93 93 96 97 98 95 97 95 95 87 82 82 76 82 66 63 60 73 77 79 72 68 56 51 58 61 53 50 51 50 47 50 48 48 48 48 54 55 50 53 58 54 50
82 84 66 64 69 79 91 92 92 85 89 91 88 92 92 90 93 93 82 90 74 80 80 78 79 71 61 68 68 66 72 51 45 62 61 58 58 53 48 47 44 44 45 48 48 48 50 52 52 54 48 43 40 41

GFSWCAN_sfc_rhum_240.txt.gz
RH
81 81 83 84 78 80 81 82 82 84 83 81 80 82 82 81 85 90 98 97 97 98 93 74 63 65 63 82 82 76 84 85 92 89 90 95 93 96 90 86 82 73 85 89 89 86 65 76 69 63 67 76 68 65
79 81 81 82 82 83 82 83 84 85 83 83 81 83 84 82 86 87 96 89 90 97 76 78 59 52 51 48 72 70 80 84 87 94 96 97 96 97 90 80 95 80 85 91 83 73 72 80 79 77 77 70 68 74
76 80 82 82 81 81 80 81 82 82 83 82 83 82 83 82 86 88 84 96 99 100 94 93 76 63 63 50 43 61 76 84 89 90 97 97 88 96 94 92 92 91 93 92 80 77 80 77 74 74 69 64 60 62
72 71 73 75 74 80 81 81 82 82 82 82 83 84 83 83 87 86 87 98 99 96 99 82 57 58 53 60 48 42 54 81 84 92 86 89 84 86 88 84 87 86 90 89 88 83 79 70 80 70 67 69 68 65
83 82 83 83 82 82 81 82 82 82 83 84 85 86 84 84 89 85 89 79 96 94 96 89 68 62 58 58 53 52 55 54 72 80 82 79 88 90 97 93 90 92 87 91 90 82 84 88 86 76 77 82 81 84
88 86 86 83 80 81 83 83 84 86 88 88 88 88 86 85 89 90 98 98 92 99 97 84 58 60 57 47 52 53 56 59 65 64 71 89 82 86 86 89 84 85 88 86 88 85 89 89 82 77 81 80 78 88
88 88 88 87 86 86 86 84 83 84 88 90 91 91 91 88 90 95 94 97 96 97 95 77 79 62 56 55 55 55 63 62 58 66 69 74 75 86 92 90 89 86 81 82 76 82 89 89 94 87 82 78 80 80
88 88 87 87 86 87 86 87 85 88 92 91 91 92 93 95 93 90 94 94 96 93 96 94 82 66 61 60 56 74 62 61 63 65 72 73 88 93 88 87 89 83 84 84 84 85 89 83 78 86 87 83 83 88
88 87 87 88 88 88 89 90 92 93 91 91 91 94 94 96 92 96 82 89 94 84 93 97 94 76 60 72 75 67 64 55 67 66 68 75 94 88 85 92 86 83 81 87 81 80 79 82 84 85 92 94 95 95
88 88 88 88 89 89 90 91 92 92 91 87 89 86 90 96 83 83 95 94 94 94 96 96 94 87 67 74 62 68 68 69 62 65 86 94 95 92 92 89 88 86 85 76 75 79 81 85 89 91 98 97 98 98
88 87 88 89 88 86 90 92 93 92 86 96 98 95 94 86 90 89 83 91 96 96 98 96 91 76 66 61 72 81 66 76 69 66 71 91 95 93 92 86 84 81 82 81 82 84 84 86 90 90 93 96 96 96
87 87 88 88 85 89 92 93 92 90 92 95 96 94 93 96 89 85 90 89 96 89 88 91 81 77 68 77 68 77 62 66 65 72 77 91 92 92 92 89 89 86 82 82 80 82 80 84 88 90 94 97 98 98
88 88 88 89 90 91 92 88 91 90 87 93 99 94 90 90 88 88 85 82 87 92 93 84 75 74 64 75 82 74 64 68 74 73 71 90 95 94 94 89 87 83 79 78 77 78 80 86 89 91 92 96 96 96
89 89 90 90 92 89 86 92 88 89 88 97 98 97 97 89 78 86 89 85 91 96 94 89 73 70 73 66 78 69 68 72 71 79 79 94 95 96 94 87 84 82 79 76 78 79 79 84 88 92 93 95 96 98
90 90 90 91 88 87 91 90 87 89 96 93 95 94 72 66 83 83 88 96 94 98 99 97 88 82 73 65 74 70 73 70 78 80 93 98 94 95 94 90 86 83 82 78 78 81 81 81 87 86 88 94 93 93
91 91 90 86 87 89 89 94 91 96 98 96 95 82 75 75 81 91 95 96 98 99 99 97 99 96 70 66 72 68 70 77 84 96 97 98 96 95 92 90 88 86 87 86 88 86 86 84 86 86 87 89 90 92
92 94 84 87 88 89 91 97 98 95 96 86 83 86 95 96 97 96 98 97 98 95 98 96 89 96 98 83 82 88 83 88 96 97 97 95 94 92 93 93 92 90 88 88 88 88 88 89 87 87 86 86 88 91
92 90 86 89 93 86 97 96 95 93 88 84 82 89 96 96 97 97 98 97 99 97 96 94 95 93 95 84 91 96 98 99 98 97 96 94 92 92 93 91 91 88 84 84 85 85 88 89 89 92 90 90 90 91
88 87 91 92 96 97 98 92 95 94 83 84 95 95 98 98 97 96 98 98 98 98 98 98 96 96 98 97 98 97 97 96 96 96 96 92 90 91 91 89 86 84 83 83 81 83 81 82 88 92 90 95 94 94
93 92 91 90 89 97 92 93 95 92 88 89 96 93 96 95 97 97 96 98 99 99 100 94 96 97 100 96 96 94 96 96 96 94 93 94 96 89 87 87 90 89 87 83 77 85 83 81 92 94 94 94 87 81
89 92 92 96 98 97 97 97 91 92 95 92 91 96 89 95 95 97 98 99 99 100 99 98 98 99 95 97 97 97 96 95 92 92 90 87 92 93 90 89 89 91 90 92 88 87 90 89 91 96 90 87 83 78
97 88 96 94 95 92 98 96 95 96 85 83 91 95 92 91 92 93 98 99 99 100 99 100 98 97 95 93 94 93 90 91 92 94 93 88 82 85 86 89 89 89 91 93 94 93 94 94 95 94 87 73 82 63
92 94 96 93 91 85 77 93 85 86 86 85 91 82 86 93 95 95 95 96 96 96 97 98 96 93 95 91 90 90 89 88 92 92 85 85 90 93 92 94 96 96 96 96 97 95 93 96 84 90 89 82 63 59
90 96 96 96 94 91 84 84 91 91 91 86 83 77 78 90 95 91 89 93 95 96 96 95 97 93 91 87 92 94 96 96 94 93 86 73 76 83 92 93 95 93 95 97 95 89 93 88 89 81 81 75 70 65
88 78 96 97 91 85 83 82 79 76 75 74 73 77 84 87 87 89 93 94 97 96 98 98 97 96 94 95 96 96 94 94 90 82 82 86 76 78 72 75 82 89 92 88 87 80 74 79 74 67 68 68 64 60
85 79 78 84 83 81 83 81 79 82 85 76 76 83 90 85 84 85 92 92 94 94 95 95 95 97 98 96 94 93 92 96 86 73 75 85 84 75 73 72 72 63 84 81 74 66 60 61 60 56 56 57 70 64
95 83 86 92 89 86 82 82 83 88 82 79 80 82 81 82 83 84 93 94 93 89 96 97 93 94 95 95 93 91 89 90 86 80 85 80 70 79 72 66 56 52 56 75 72 65 63 62 63 58 55 52 45 44
93 91 82 76 74 83 75 84 92 87 81 84 84 81 80 76 80 86 93 91 91 91 86 91 91 94 96 95 92 90 81 75 68 67 66 66 70 72 67 59 53 66 53 58 64 65 65 67 67 54 44 42 44 43
85 84 78 71 67 76 81 90 89 88 87 84 92 92 92 80 87 90 85 96 95 94 86 88 91 81 85 90 94 92 80 66 58 62 66 69 67 62 71 62 58 56 52 51 68 65 56 48 47 46 45 45 45 50
83 76 69 65 68 76 78 90 86 84 96 94 92 86 90 94 97 98 97 96 95 91 90 87 90 79 84 81 75 73 80 78 69 62 66 64 59 64 58 54 52 52 54 52 48 47 65 58 63 56 55 57 58 58
71 71 65 66 72 81 90 93 95 94 95 96 92 97 97 99 95 97 95 87 90 92 78 68 77 82 84 84 83 78 65 71 74 64 67 78 74 66 55 55 55 54 52 49 48 46 46 49 51 55 58 56 52 51
78 72 78 66 68 89 94 92 93 89 91 92 93 97 98 96 96 97 97 96 89 78 84 76 81 72 70 69 73 75 80 74 73 70 52 56 60 53 51 51 51 51 50 46 46 46 48 47 45 44 44 46 46 45
84 87 79 78 74 81 90 92 90 82 87 88 90 94 92 92 93 94 93 94 86 92 82 82 80 74 69 70 69 68 75 62 54 64 63 59 60 54 48 48 46 46 46 46 44 43 44 46 46 46 45 46 45 44

GFSWCAN_sfc_rhum_246.txt.gz
RH
73 74 77 78 79 79 80 80 80 80 78 76 76 78 80 82 83 74 50 52 55 42 32 33 33 39 34 36 38 48 46 44 39 43 33 32 36 32 36 29 35 32 30 22 24 29 32 36 36 32 44 38 38 38
81 80 77 76 77 79 80 80 80 79 80 80 80 79 82 84 85 83 52 49 50 60 35 36 34 31 33 31 32 31 47 44 41 49 43 46 39 40 36 28 43 40 32 37 34 36 50 44 45 46 37 40 40 39
83 82 81 80 79 78 78 80 80 82 83 82 80 82 81 84 85 84 64 52 54 47 32 28 24 23 19 20 21 34 30 42 45 44 40 44 61 40 46 33 41 46 45 37 45 46 45 43 40 36 36 38 38 37
84 82 82 82 82 81 78 78 80 83 82 81 81 83 85 85 86 85 71 49 53 44 42 30 29 36 30 23 21 22 29 40 35 41 39 39 38 47 38 48 44 38 48 41 41 48 48 45 42 40 40 39 38 39
86 84 84 84 84 83 82 80 82 84 85 86 86 84 85 86 89 79 72 68 54 54 46 34 26 25 26 28 31 23 23 29 34 38 38 40 40 48 54 50 39 40 40 39 39 43 50 53 48 42 43 46 43 43
88 88 88 87 86 85 82 83 83 85 86 88 86 86 87 88 91 69 62 63 64 52 53 41 26 28 32 32 35 34 28 30 32 32 32 37 46 65 59 46 48 45 49 48 51 48 46 47 46 45 47 47 44 46
88 88 88 87 85 83 83 83 83 87 89 88 87 88 86 90 74 54 60 65 71 55 55 42 30 32 32 33 33 34 31 33 33 31 31 29 37 48 38 44 56 56 53 54 49 52 58 49 52 48 45 44 48 43
89 89 89 88 85 84 84 83 85 90 91 87 89 90 93 89 82 57 53 85 66 54 48 44 33 35 29 30 34 29 33 34 35 30 30 32 39 40 42 47 55 55 54 53 53 49 45 48 49 51 44 40 42 46
89 89 89 89 85 87 88 85 90 92 90 90 86 86 66 58 47 55 85 86 61 57 50 38 40 38 31 30 31 33 30 34 30 34 30 34 34 46 39 58 59 57 58 57 52 51 47 45 46 46 43 45 42 48
89 89 89 87 89 89 89 87 92 90 89 85 74 53 49 51 82 80 75 63 60 53 52 46 29 39 33 32 34 33 32 51 51 39 36 38 34 54 62 56 57 55 53 52 57 56 48 46 45 46 47 48 50 52
89 89 89 89 90 85 85 91 86 91 81 45 43 41 48 72 56 50 60 55 47 54 43 38 34 31 24 39 40 37 51 42 43 48 36 39 36 47 60 63 61 57 51 44 40 42 37 42 44 46 50 51 52 55
89 89 86 88 84 86 89 90 91 73 62 75 81 77 59 53 63 63 52 46 52 56 56 59 60 44 29 39 48 43 41 40 50 34 37 36 47 68 64 63 61 55 46 43 43 45 45 46 46 50 52 50 51 54
89 88 86 83 87 88 89 90 90 91 90 69 88 71 50 45 78 50 46 56 66 66 61 66 66 50 44 43 50 55 55 43 32 38 34 35 67 66 65 60 52 45 44 46 47 47 49 51 50 49 54 52 50 52
89 89 89 89 89 88 91 91 88 82 63 51 62 98 59 51 46 55 55 60 66 67 59 68 85 62 43 45 39 50 38 35 35 35 35 37 68 66 61 54 47 47 45 47 51 52 54 56 56 56 52 52 51 57
89 89 88 88 88 88 92 93 83 64 51 48 55 75 44 37 42 44 48 60 49 50 63 79 90 86 76 60 45 41 44 41 35 34 34 51 65 68 60 51 47 49 50 49 48 49 50 50 50 53 52 51 56 60
90 86 63 83 88 91 94 85 76 61 56 55 51 40 36 32 33 35 52 57 43 52 49 63 83 90 95 90 68 52 40 41 38 50 55 66 73 66 63 52 50 49 52 49 51 51 48 49 50 50 50 51 52 58
90 58 84 87 90 93 88 69 60 64 52 51 46 46 42 52 64 71 66 79 63 58 70 65 64 77 83 87 83 61 75 75 57 58 59 70 77 76 64 58 56 57 59 60 56 55 51 52 49 50 54 53 49 53
59 56 82 87 91 88 57 57 58 54 52 40 50 49 60 67 73 75 81 85 87 74 61 67 54 69 72 76 80 85 75 91 76 67 62 71 78 76 70 74 68 64 61 54 51 49 49 50 51 43 54 54 46 47
80 82 87 93 92 78 60 55 58 52 39 39 42 47 65 69 82 96 96 97 94 90 91 64 71 62 62 77 82 86 91 88 74 63 64 69 65 66 62 58 61 58 55 54 49 39 38 49 48 39 42 42 31 34
92 89 89 91 84 64 61 52 55 57 50 48 45 48 56 70 95 96 92 85 89 94 90 81 76 79 83 97 94 97 96 86 86 80 59 58 52 59 59 51 47 60 59 56 44 74 39 40 48 53 48 43 32 34
78 68 81 78 65 62 58 50 49 49 46 50 43 54 70 85 93 95 96 93 87 89 92 96 97 94 99 99 99 98 92 61 84 86 79 54 47 44 47 47 46 39 39 38 38 48 55 35 38 46 47 42 34 30
61 84 63 63 63 63 63 51 51 49 52 48 49 50 60 71 87 94 98 97 99 99 99 99 99 99 95 96 81 66 75 66 54 50 62 55 40 43 44 42 40 40 40 42 42 42 55 37 37 37 38 40 52 30
79 76 61 61 64 71 67 48 61 52 58 52 44 54 57 58 68 74 90 80 91 90 93 97 93 90 86 80 74 69 53 48 40 41 40 41 46 46 48 49 49 54 59 74 53 54 51 72 54 43 39 37 32 32
88 68 68 60 57 65 47 51 46 47 44 43 53 57 53 52 46 66 72 80 85 70 82 82 87 85 74 76 83 48 46 38 38 39 33 32 38 46 45 53 40 42 46 54 56 46 51 44 63 38 36 33 34 34
86 77 67 99 51 55 49 46 46 41 46 45 49 57 61 44 46 52 74 78 82 80 82 83 71 71 78 79 80 57 54 38 35 37 37 28 28 28 29 30 35 40 35 44 64 44 54 48 44 33 31 30 34 33
92 58 81 53 50 55 49 53 52 54 47 47 46 43 58 42 48 57 66 82 76 66 67 60 66 79 81 65 65 63 46 41 35 34 36 26 22 24 24 23 24 28 25 24 26 25 24 22 21 22 20 24 59 28
73 58 47 47 49 49 49 46 44 47 51 52 56 53 54 52 55 70 76 87 78 61 56 53 57 70 74 54 46 46 39 39 40 33 32 30 26 24 23 24 26 25 22 24 24 23 23 22 22 22 22 22 22 22
52 58 59 50 49 47 58 58 57 59 57 56 71 76 63 66 72 68 74 75 52 44 42 45 52 47 46 46 41 33 29 29 31 27 25 24 24 23 27 23 26 75 30 27 26 22 22 22 22 23 24 25 27 27
51 44 47 52 52 50 55 61 61 59 62 68 75 90 94 89 71 67 62 61 49 42 44 43 48 43 40 42 36 30 27 25 29 34 33 31 28 27 25 25 23 22 22 25 77 49 33 27 26 23 23 22 21 21
51 41 49 50 65 59 64 46 48 43 47 51 61 79 94 96 93 60 58 57 82 77 51 52 65 50 40 32 35 37 29 27 28 30 33 36 34 26 26 25 23 21 21 21 20 24 63 40 42 24 26 23 22 21
41 41 50 46 45 52 56 45 40 42 51 66 66 73 67 93 96 96 81 65 80 61 47 46 39 36 32 34 42 32 31 24 24 26 27 27 25 24 24 25 22 22 23 22 23 23 24 24 24 26 27 29 29 28
41 47 45 53 54 54 55 55 44 44 48 63 69 79 70 78 87 85 58 67 64 59 60 46 44 42 41 33 33 26 78 22 21 20 22 25 28 26 24 22 21 21 24 24 23 23 24 26 25 25 26 29 31 30
43 43 43 42 50 52 57 60 51 48 46 54 61 59 61 67 81 86 72 70 61 52 52 41 59 42 41 35 27 26 54 24 39 58 52 64 75 52 28 20 20 22 23 23 24 23 24 26 27 29 29 30 30 31